This is the latest recevied weather packets stored in our database for station/object N5DGC. If no packets are shown the sender has not sent any weather packets the latest 10 day(s).
| Time | Temp. | Humidity | Pressure | Rain* | Wind** | Luminosity | Snow |
|---|---|---|---|---|---|---|---|
| 1787772949 | 36.11° C | 23% | 1243.7 hPa | 0 mm | - | 477 W/m² | - |
| 1787772645 | 36.11° C | 23% | 1243.9 hPa | 0 mm | - | 486 W/m² | - |
| 1787772343 | 36.11° C | 22% | 1243.7 hPa | 0 mm | - | 1046 W/m² | - |
| 1787772043 | 36.11° C | 22% | 1243.8 hPa | 0 mm | - | 912 W/m² | - |
| 1787771743 | 36.11° C | 23% | 1244.1 hPa | 0 mm | - | 927 W/m² | - |
| 1787771441 | 35.56° C | 24% | 1244.2 hPa | 0 mm | - | 939 W/m² | - |
| 1787771141 | 35.56° C | 23% | 1244.4 hPa | 0 mm | - | 927 W/m² | - |
| 1787770837 | 35.56° C | 24% | 1244.5 hPa | 0 mm | - | 925 W/m² | - |
| 1787770535 | 35° C | 24% | 1244.5 hPa | 0 mm | - | 916 W/m² | - |
| 1787770235 | 34.44° C | 25% | 1244.9 hPa | 0 mm | - | 922 W/m² | - |
| 1787769933 | 33.33° C | 26% | 1244.6 hPa | 0 mm | - | 917 W/m² | - |
| 1787769629 | 33.89° C | 26% | 1245.1 hPa | 0 mm | - | 915 W/m² | - |
| 1787769326 | 33.89° C | 26% | 1245.1 hPa | 0 mm | - | 912 W/m² | - |
| 1787769022 | 33.89° C | 25% | 1245.2 hPa | 0 mm | - | 908 W/m² | - |
| 1787768717 | 33.89° C | 25% | 1245.2 hPa | 0 mm | - | 900 W/m² | - |
| 1787768414 | 33.89° C | 26% | 1245.2 hPa | 0 mm | - | 892 W/m² | - |
| 1787768110 | 33.89° C | 26% | 1245.3 hPa | 0 mm | - | 879 W/m² | - |
| 1787767810 | 33.89° C | 26% | 1245.7 hPa | 0 mm | - | 865 W/m² | - |
| 1787767506 | 33.89° C | 26% | 1245.5 hPa | 0 mm | - | 856 W/m² | - |
| 1787767204 | 33.89° C | 27% | 1245.7 hPa | 0 mm | - | 857 W/m² | - |
| 1787766903 | 33.33° C | 28% | 1245.6 hPa | 0 mm | - | 863 W/m² | - |
| 1787766597 | 32.78° C | 28% | 1245.8 hPa | 0 mm | - | 867 W/m² | - |
| 1787766296 | 32.78° C | 28% | 1245.7 hPa | 0 mm | - | 866 W/m² | - |
| 1787765991 | 33.89° C | 27% | 1245.8 hPa | 0 mm | - | 859 W/m² | - |
| 1787765688 | 33.89° C | 27% | 1245.8 hPa | 0 mm | - | 853 W/m² | - |
* Rain latest hour (hover to see other rain measurements)
** Current wind speed in m/s (hover to see current wind gust speed)